User: anonymous   Login
Location: Schommer Observatory
(40.5200°N, 74.4500°W)
Time: 00:40:37
(UTC-05:00)
Language:

N. Korean satellite - Orbit

View from above orbital plane
View from above orbital plane
View from above satellite
View from above satellite

Ground track
Ground track

The orbit data is extracted from the following two-line orbital elements,

1 39026U 12072A   18022.56744030 +.00001290 +00000-0 +51280-4 0  9996
2 39026 097.2148 037.9008 0041279 118.6003 241.9399 15.26298265283389
Epoch (UTC): 22 January 2018 13:37:06
Eccentricity: 0.0041279
inclination: 97.2148°
perigee height: 458 km
apogee height: 515 km
right ascension of ascending node: 37.9008°
argument of perigee: 118.6003°
revolutions per day: 15.26298265
mean anomaly at epoch: 241.9399°
orbit number at epoch: 28338

The dashed part of the orbit path shows where the satellite is in the earth's shadow,  

DLR